| time (UTC) | temp F | wind direction | speed MPH | gust MPH | rain 1hr in | rain 24hr in | rain mn in | humidity % | barometer mb |
| 20260504081554 | 46 | 175 | 4.0 | 7.0 | 0.00 | 0.00 | 0.00 | 66 | 1008.5 |
| 20260504044555 | 44 | 144 | 0.0 | 2.0 | 0.00 | 0.00 | 0.00 | 77 | 1008.7 |
| 20260504043044 | 43 | 0 | 0.0 | 0.0 | 0.00 | 0.00 | 0.00 | 75 | 1008.8 |
| 20260504041539 | 43 | 0 | 0.0 | 0.0 | 0.00 | 0.00 | 0.00 | 74 | 1008.9 |
| 20260504040050 | 43 | 0 | 0.0 | 0.0 | 0.00 | 0.00 | 0.00 | 75 | 1008.8 |
| 20260504034552 | 43 | 0 | 0.0 | 0.0 | 0.00 | 0.00 | 0.00 | 76 | 1008.7 |
| 20260504033050 | 43 | 0 | 0.0 | 1.0 | 0.00 | 0.00 | 0.00 | 75 | 1008.7 |
| 20260504031542 | 43 | 0 | 0.0 | 1.0 | 0.00 | 0.00 | 0.00 | 75 | 1008.7 |
| 20260504030041 | 44 | 0 | 0.0 | 0.0 | 0.00 | 0.00 | 0.00 | 73 | 1008.6 |
| 20260504024544 | 44 | 0 | 0.0 | 0.0 | 0.00 | 0.00 | 0.00 | 71 | 1008.6 |
| 20260504023037 | 45 | 0 | 0.0 | 0.0 | 0.00 | 0.00 | 0.00 | 72 | 1008.5 |
| 20260504021544 | 45 | 0 | 0.0 | 0.0 | 0.00 | 0.00 | 0.00 | 71 | 1008.6 |
| 20260504020043 | 46 | 0 | 0.0 | 0.0 | 0.00 | 0.00 | 0.00 | 66 | 1008.7 |
| 20260504014545 | 47 | 0 | 0.0 | 0.0 | 0.00 | 0.00 | 0.00 | 65 | 1008.7 |
| 20260504013043 | 48 | 0 | 0.0 | 0.0 | 0.00 | 0.00 | 0.00 | 63 | 1008.6 |
| 20260504011538 | 50 | 0 | 0.0 | 0.0 | 0.00 | 0.00 | 0.00 | 59 | 1008.5 |
| 20260504010048 | 51 | 0 | 0.0 | 0.0 | 0.00 | 0.00 | 0.00 | 54 | 1008.2 |
| 20260504004537 | 52 | 0 | 0.0 | 0.0 | 0.00 | 0.00 | 0.00 | 46 | 1008.1 |
| 20260504003037 | 53 | 0 | 0.0 | 0.0 | 0.00 | 0.00 | 0.00 | 43 | 1007.9 |
| 20260504001601 | 54 | 0 | 0.0 | 0.0 | 0.00 | 0.00 | 0.00 | 40 | 1007.7 |
| 20260504000044 | 55 | 0 | 0.0 | 0.0 | 0.00 | 0.00 | 0.00 | 40 | 1007.7 |
| 20260503234539 | 55 | 0 | 0.0 | 5.0 | 0.00 | 0.00 | 0.00 | 39 | 1007.4 |
| 20260503233037 | 56 | 166 | 0.0 | 4.0 | 0.00 | 0.00 | 0.00 | 38 | 1007.2 |
| 20260503231545 | 56 | 28 | 1.0 | 5.0 | 0.00 | 0.00 | 0.00 | 34 | 1007.1 |
| 20260503230043 | 56 | 180 | 2.0 | 6.0 | 0.00 | 0.00 | 0.00 | 34 | 1007.0 |
| 20260503224543 | 56 | 0 | 0.0 | 3.0 | 0.00 | 0.00 | 0.00 | 34 | 1006.8 |
| 20260503223043 | 57 | 65 | 1.0 | 4.0 | 0.00 | 0.00 | 0.00 | 28 | 1006.7 |
| 20260503221543 | 58 | 58 | 1.0 | 4.0 | 0.00 | 0.00 | 0.00 | 29 | 1006.4 |
| 20260503220049 | 58 | 244 | 2.0 | 7.0 | 0.00 | 0.00 | 0.00 | 26 | 1006.7 |
| 20260503214537 | 58 | 227 | 1.0 | 7.0 | 0.00 | 0.00 | 0.00 | 33 | 1006.6 |
| 20260503213047 | 58 | 56 | 2.0 | 5.0 | 0.00 | 0.00 | 0.00 | 35 | 1006.6 |
| 20260503211559 | 58 | 238 | 3.0 | 9.0 | 0.00 | 0.00 | 0.00 | 31 | 1006.5 |
| 20260503210041 | 58 | 207 | 1.0 | 5.0 | 0.00 | 0.00 | 0.00 | 32 | 1006.5 |
| 20260503204540 | 57 | 216 | 2.0 | 7.0 | 0.00 | 0.00 | 0.00 | 29 | 1006.5 |
| 20260503203038 | 57 | 64 | 2.0 | 7.0 | 0.00 | 0.00 | 0.00 | 31 | 1006.7 |
| 20260503201539 | 56 | 248 | 1.0 | 6.0 | 0.00 | 0.00 | 0.00 | 37 | 1006.7 |
| 20260503200044 | 56 | 220 | 4.0 | 13.0 | 0.00 | 0.00 | 0.00 | 32 | 1006.8 |
| 20260503194547 | 56 | 251 | 3.0 | 9.0 | 0.00 | 0.00 | 0.00 | 37 | 1007.0 |
| 20260503193049 | 55 | 246 | 2.0 | 7.0 | 0.00 | 0.00 | 0.00 | 37 | 1007.2 |
| 20260503191540 | 55 | 67 | 2.0 | 6.0 | 0.00 | 0.00 | 0.00 | 39 | 1007.4 |
| 20260503190039 | 53 | 229 | 2.0 | 7.0 | 0.00 | 0.00 | 0.00 | 36 | 1007.8 |
| 20260503184537 | 53 | 48 | 2.0 | 7.0 | 0.00 | 0.00 | 0.00 | 42 | 1008.1 |
| 20260503183041 | 52 | 240 | 1.0 | 8.0 | 0.00 | 0.00 | 0.00 | 39 | 1008.1 |
| 20260503181616 | 51 | 237 | 4.0 | 10.0 | 0.00 | 0.00 | 0.00 | 40 | 1008.3 |
| 20260503180044 | 51 | 0 | 3.0 | 11.0 | 0.00 | 0.00 | 0.00 | 42 | 1008.2 |
| 20260503174540 | 51 | 76 | 1.0 | 9.0 | 0.00 | 0.00 | 0.00 | 38 | 1008.2 |
| 20260503173051 | 51 | 193 | 2.0 | 9.0 | 0.00 | 0.00 | 0.00 | 39 | 1008.2 |
| 20260503171538 | 51 | 94 | 2.0 | 11.0 | 0.00 | 0.00 | 0.00 | 38 | 1008.3 |